Погода в Баловневе

Россия / Липецкая область     53°12′55″N   39°02′09″E
темп.,
°C
ветер,
м/с
пор.,
м/с
влажн.,
%
обл.,
%
осадки,
мм/ч
давл.,
гПа
погр.,
м
27 октября, ср
ср2700:00+3юз61556100 0.0 1025420
03:00+3юз61460100 0.0 1024370
06:00+2юз61367100 0.0 1022336
09:00+3юз7156796 0.0 1022473
12:00+7юз813575 0.0 1020761
15:00+9юз813585 0.0 10191049
18:00+7зюз71368100 0.0 1019692
21:00+7з6117192 0.0 1019604
28 октября, чт
чт2800:00+6з51078100 0.0 1019553
03:00+4юз498994 0.0 1019240
06:00+4юз51191100 0.0 1017328
09:00+6юз61481100 0.1 1016484
12:00+6зюз71391100 1.3 1015636
15:00+7з61293100 1.8 1014529
18:00+7з4109699 0.1 1015420
21:00+8сз510919 0.3 1017436
29 октября, пт
пт2900:00+7ссз61190100 0.1 1020646
03:00+6с598897 0.1 1023415
06:00+4ссв3790100 0.0 1026229
09:00+5св257729 0.0 1028234
12:00+7вюв226278 0.0 1029743
15:00+8юз125988 0.0 1029705
18:00+6юз22715 0.0 103014
21:00+5юз33785 0.0 103138
30 октября, сб
сб3000:00+4юз35855 0.0 103279
03:00+3зюз36895 0.0 103293
06:00+3зюз369022 0.0 103298
09:00+4юз37845 0.0 1033188
12:00+9зюз46645 0.0 1033409
15:00+10зюз466261 0.0 1032527
18:00+7юз367835 0.0 1032103
21:00+6юз368258 0.0 1033113
31 октября, вс
вс3100:00+5юз36865 0.0 103396
03:00+4юз35905 0.0 103386
06:00+3юз35915 0.0 103383
09:00+5юз36841 0.0 1033167
12:00+9юз46605 0.0 1032408
15:00+10юз46555 0.0 1030521
18:00+7ююз33690 0.0 103042
21:00+5ююз34730 0.0 103058